Zurück zum Katalog

COSMOS 2475

GLONASS

AktivNavigationMEO
NORAD 37869·PAYLOAD·🇷🇺 Russia

Gestartet Nov 4, 2011 von Baikonur Cosmodrome

Loading…

Nächste Überflüge (nächste 24 Stunden)

TLE

AktuellSource: CelesTrak SupGP

Epoche: Sep 13, 2026, 23:59 UTC

1 37869C 11064C   26256.99979167  .00000000  00000+0  00000+0 0  2567
2 37869  65.3388  69.9781 0024823 245.8426 147.9297  2.13101746    13

Verfolge COSMOS 2475 in Echtzeit mit AllMySat

Download on the App Store